Simultaneous Nadir Overpasses (SNOs) Predictions

Prediction of SNOs between GOES-15 and TERRA Satellite Orbit:

Table of predicted SNOs for the next 14.0 days since TLE Epoch: 9/30/2023
Index Date Time (GOES-15) GOES-15 Lat,Lon TERRA Lat,Lon Distance(km) Time Diff (sec)
1 09/30/2023 15:19:27 0.32, 97.49 0.84, 99.94 278.10 80
2 10/01/2023 03:42:17 -0.34, 96.83 0.02, 95.01 206.32 80
3 10/03/2023 03:23:14 -0.32, 94.69 -1.19, 98.91 479.15 80
4 10/03/2023 15:46:13 0.33, 94.25 0.27, 93.96 33.37 80
5 10/06/2023 03:47:19 -0.32, 91.45 -0.61, 92.94 168.27 80
6 10/06/2023 16:10:19 0.33, 91.00 -0.30, 87.98 343.40 80
7 10/08/2023 15:51:15 0.32, 88.86 0.98, 91.87 343.52 80
8 10/09/2023 04:14:05 -0.33, 88.20 -0.09, 86.95 140.75 80
9 10/11/2023 16:15:19 0.32, 85.59 0.39, 85.91 36.64 80
10 10/12/2023 04:38:08 -0.33, 84.93 0.50, 80.99 447.93 80
